Total_Precipitation_Accumulation
0.01 0.00 0.01 0.01 0.04 0.00 0.00 0.00 0.00 0.00 0.00 0.00 0.00 0.00 0.00 0.00 0.00 0.00 0.00 0.00 0.00 0.00 0.00 0.00 0.00 0.00 0.00 0.00 0.01 0.02 0.00 0.00 0.00 0.00 0.00 0.00 0.00 0.00 0.00 0.00 0.00 0.00 0.00 0.00 0.00 0.00 0.00 0.01 0.00 0.00 0.00 0.00 0.00 0.00 0.00 0.00 0.00 0.00 0.00 0.00 0.00 0.00 0.00 0.00 0.00 0.00 0.00 0.01 0.00 0.00 0.00 0.02 0.01 0.00 0.00 0.00 0.00 0.00 0.00 0.01 0.00 0.00 0.00 0.01 0.02
0.00 0.01 0.01 0.01 0.02 0.01 0.00 0.00 0.00 0.00 0.00 0.00 0.00 0.00 0.00 0.00 0.00 0.00 0.00 0.00 0.00 0.00 0.00 0.00 0.00 0.00 0.00 0.01 0.00 0.00 0.00 0.00 0.00 0.00 0.00 0.00 0.00 0.01 0.01 0.01 0.02 0.01 0.00 0.00 0.00 0.00 0.00 0.00 0.00 0.00 0.00 0.00 0.01 0.01 0.01 0.00 0.00 0.00 0.00 0.00 0.00 0.00 0.00 0.00 0.00 0.00 0.01 0.01 0.01 0.01 0.00 0.01 0.00 0.01 0.00 0.00 0.00 0.00 0.01 0.00 0.00 0.00 0.00 0.03 0.03
0.00 0.01 0.02 0.02 0.02 0.01 0.01 0.01 0.00 0.00 0.00 0.00 0.00 0.00 0.00 0.00 0.00 0.00 0.00 0.00 0.00 0.00 0.00 0.00 0.00 0.00 0.00 0.00 0.00 0.00 0.00 0.00 0.00 0.00 0.00 0.00 0.00 0.01 0.00 0.00 0.00 0.00 0.00 0.00 0.00 0.00 0.00 0.00 0.00 0.00 0.00 0.00 0.00 0.00 0.01 0.01 0.01 0.00 0.01 0.00 0.01 0.01 0.00 0.00 0.00 0.00 0.00 0.00 0.00 0.00 0.00 0.00 0.00 0.01 0.00 0.00 0.00 0.00 0.00 0.00 0.00 0.00 0.01 0.00 0.00
0.00 0.01 0.03 0.05 0.05 0.01 0.01 0.01 0.00 0.00 0.00 0.00 0.00 0.00 0.00 0.00 0.00 0.00 0.00 0.00 0.00 0.00 0.00 0.00 0.00 0.00 0.00 0.00 0.00 0.00 0.00 0.00 0.00 0.00 0.00 0.00 0.00 0.00 0.00 0.00 0.00 0.00 0.00 0.00 0.00 0.00 0.00 0.00 0.00 0.00 0.00 0.00 0.00 0.00 0.00 0.01 0.01 0.00 0.00 0.00 0.00 0.00 0.00 0.01 0.01 0.00 0.00 0.00 0.00 0.00 0.00 0.00 0.00 0.00 0.00 0.00 0.00 0.00 0.00 0.00 0.00 0.00 0.00 0.00 0.00
0.00 0.01 0.02 0.05 0.05 0.02 0.01 0.00 0.01 0.00 0.00 0.00 0.00 0.00 0.00 0.00 0.00 0.00 0.00 0.00 0.00 0.00 0.00 0.00 0.00 0.00 0.00 0.00 0.00 0.00 0.00 0.00 0.00 0.00 0.00 0.00 0.01 0.01 0.01 0.01 0.02 0.08 0.01 0.00 0.00 0.00 0.00 0.00 0.00 0.00 0.00 0.00 0.00 0.00 0.00 0.01 0.00 0.02 0.00 0.00 0.00 0.01 0.00 0.00 0.00 0.00 0.00 0.00 0.00 0.00 0.00 0.00 0.00 0.00 0.00 0.00 0.00 0.00 0.00 0.00 0.00 0.00 0.00 0.00 0.00
0.01 0.02 0.02 0.02 0.02 0.03 0.01 0.00 0.01 0.00 0.00 0.00 0.00 0.00 0.00 0.00 0.00 0.00 0.00 0.00 0.00 0.00 0.00 0.00 0.00 0.00 0.00 0.00 0.00 0.00 0.00 0.00 0.00 0.00 0.00 0.00 0.01 0.03 0.04 0.04 0.02 0.02 0.02 0.00 0.01 0.01 0.00 0.00 0.00 0.00 0.00 0.00 0.00 0.00 0.00 0.00 0.01 0.00 0.00 0.00 0.00 0.00 0.00 0.00 0.00 0.00 0.00 0.00 0.00 0.00 0.00 0.00 0.00 0.00 0.00 0.01 0.00 0.00 0.00 0.00 0.00 0.00 0.00 0.00 0.00
0.00 0.02 0.02 0.02 0.03 0.03 0.01 0.02 0.01 0.00 0.00 0.00 0.00 0.00 0.00 0.00 0.00 0.00 0.00 0.00 0.00 0.00 0.00 0.00 0.00 0.00 0.00 0.00 0.01 0.00 0.00 0.00 0.00 0.00 0.00 0.01 0.02 0.02 0.04 0.05 0.05 0.02 0.00 0.00 0.00 0.01 0.03 0.02 0.00 0.00 0.00 0.00 0.00 0.01 0.00 0.01 0.00 0.01 0.01 0.01 0.01 0.00 0.00 0.00 0.00 0.00 0.00 0.00 0.00 0.00 0.00 0.00 0.00 0.00 0.00 0.00 0.00 0.00 0.00 0.00 0.00 0.00 0.00 0.00 0.00
0.02 0.03 0.02 0.02 0.02 0.02 0.02 0.01 0.00 0.00 0.00 0.00 0.00 0.00 0.00 0.00 0.00 0.00 0.00 0.00 0.00 0.00 0.00 0.00 0.00 0.00 0.00 0.00 0.00 0.00 0.00 0.00 0.00 0.00 0.00 0.01 0.01 0.01 0.03 0.04 0.03 0.02 0.01 0.02 0.01 0.05 0.01 0.02 0.00 0.00 0.00 0.00 0.00 0.01 0.01 0.03 0.01 0.01 0.01 0.00 0.00 0.00 0.00 0.00 0.00 0.00 0.00 0.00 0.00 0.00 0.00 0.00 0.00 0.00 0.00 0.00 0.00 0.00 0.00 0.00 0.00 0.00 0.00 0.00 0.00
0.05 0.05 0.03 0.03 0.05 0.05 0.02 0.02 0.00 0.01 0.00 0.01 0.00 0.00 0.00 0.00 0.00 0.00 0.00 0.00 0.00 0.00 0.00 0.00 0.00 0.00 0.00 0.00 0.00 0.00 0.00 0.00 0.01 0.01 0.01 0.00 0.00 0.01 0.02 0.03 0.03 0.01 0.03 0.01 0.00 0.01 0.00 0.01 0.00 0.00 0.00 0.01 0.03 0.01 0.01 0.01 0.01 0.00 0.00 0.00 0.00 0.00 0.00 0.00 0.00 0.00 0.00 0.01 0.00 0.00 0.00 0.00 0.00 0.00 0.01 0.00 0.00 0.00 0.00 0.00 0.00 0.00 0.00 0.00 0.00
0.06 0.03 0.05 0.03 0.04 0.02 0.01 0.00 0.00 0.01 0.01 0.01 0.01 0.01 0.00 0.00 0.00 0.00 0.00 0.00 0.00 0.00 0.00 0.00 0.00 0.00 0.00 0.00 0.00 0.00 0.01 0.02 0.01 0.03 0.02 0.00 0.00 0.01 0.02 0.01 0.04 0.00 0.00 0.01 0.00 0.00 0.00 0.00 0.00 0.00 0.00 0.01 0.01 0.00 0.00 0.00 0.00 0.00 0.00 0.00 0.00 0.00 0.00 0.00 0.00 0.00 0.00 0.00 0.00 0.00 0.00 0.00 0.00 0.00 0.00 0.00 0.00 0.00 0.00 0.00 0.00 0.00 0.00 0.00 0.00
0.05 0.05 0.11 0.04 0.04 0.01 0.00 0.00 0.01 0.00 0.01 0.01 0.01 0.01 0.01 0.00 0.00 0.00 0.00 0.00 0.00 0.00 0.00 0.00 0.00 0.00 0.00 0.00 0.00 0.01 0.02 0.02 0.07 0.03 0.04 0.03 0.02 0.02 0.04 0.04 0.02 0.00 0.00 0.00 0.00 0.00 0.00 0.00 0.00 0.00 0.00 0.00 0.00 0.00 0.00 0.00 0.00 0.00 0.00 0.00 0.00 0.00 0.00 0.00 0.00 0.00 0.00 0.00 0.00 0.00 0.00 0.00 0.00 0.00 0.00 0.00 0.00 0.00 0.00 0.00 0.00 0.00 0.00 0.00 0.00
0.12 0.23 0.31 0.07 0.06 0.01 0.00 0.00 0.00 0.00 0.01 0.01 0.01 0.01 0.01 0.01 0.01 0.00 0.01 0.00 0.00 0.00 0.00 0.00 0.00 0.00 0.00 0.01 0.01 0.01 0.02 0.01 0.07 0.08 0.04 0.01 0.02 0.04 0.03 0.04 0.07 0.00 0.00 0.01 0.00 0.00 0.00 0.00 0.00 0.00 0.00 0.00 0.00 0.00 0.00 0.00 0.00 0.00 0.00 0.00 0.00 0.00 0.00 0.00 0.00 0.00 0.00 0.00 0.00 0.00 0.00 0.00 0.00 0.00 0.00 0.00 0.00 0.00 0.00 0.00 0.00 0.00 0.00 0.00 0.00
0.17 0.25 0.36 0.28 0.11 0.09 0.04 0.01 0.02 0.00 0.02 0.02 0.02 0.01 0.01 0.01 0.01 0.01 0.00 0.00 0.00 0.00 0.00 0.00 0.00 0.00 0.00 0.02 0.04 0.08 0.03 0.04 0.04 0.06 0.08 0.09 0.03 0.02 0.02 0.05 0.04 0.02 0.01 0.01 0.01 0.00 0.00 0.00 0.00 0.00 0.00 0.00 0.00 0.00 0.00 0.00 0.00 0.00 0.00 0.00 0.00 0.00 0.00 0.00 0.00 0.00 0.00 0.01 0.00 0.00 0.00 0.00 0.00 0.00 0.01 0.00 0.02 0.01 0.01 0.01 0.00 0.00 0.01 0.01 0.01
0.17 0.36 0.33 0.37 0.29 0.55 0.26 0.11 0.02 0.02 0.02 0.05 0.05 0.03 0.02 0.01 0.01 0.02 0.00 0.00 0.00 0.00 0.00 0.00 0.01 0.02 0.02 0.01 0.02 0.01 0.01 0.02 0.02 0.02 0.02 0.06 0.10 0.05 0.04 0.04 0.06 0.02 0.02 0.01 0.01 0.02 0.02 0.01 0.00 0.00 0.00 0.00 0.00 0.00 0.00 0.00 0.00 0.00 0.00 0.00 0.00 0.00 0.00 0.00 0.00 0.00 0.00 0.00 0.00 0.00 0.00 0.00 0.00 0.00 0.00 0.00 0.00 0.00 0.00 0.00 0.00 0.00 0.00 0.00 0.00
0.39 0.33 0.78 0.90 0.22 0.35 0.47 0.20 0.06 0.03 0.05 0.06 0.13 0.13 0.10 0.04 0.02 0.01 0.00 0.00 0.00 0.00 0.02 0.01 0.01 0.00 0.02 0.02 0.00 0.01 0.01 0.00 0.01 0.02 0.00 0.02 0.05 0.04 0.01 0.07 0.08 0.06 0.02 0.00 0.01 0.01 0.02 0.00 0.00 0.00 0.00 0.00 0.00 0.00 0.00 0.00 0.00 0.00 0.00 0.00 0.00 0.00 0.00 0.00 0.00 0.02 0.00 0.00 0.00 0.00 0.00 0.00 0.00 0.00 0.00 0.00 0.00 0.00 0.00 0.00 0.00 0.00 0.00 0.00 0.00
0.34 0.29 0.25 0.50 0.94 0.71 0.67 0.72 0.69 0.12 0.19 0.41 0.32 0.45 0.09 0.07 0.04 0.04 0.03 0.03 0.01 0.00 0.03 0.02 0.01 0.00 0.00 0.01 0.00 0.00 0.00 0.00 0.01 0.02 0.01 0.05 0.03 0.02 0.02 0.03 0.11 0.03 0.03 0.00 0.00 0.00 0.00 0.02 0.01 0.00 0.00 0.00 0.00 0.00 0.00 0.00 0.00 0.00 0.00 0.00 0.00 0.00 0.00 0.00 0.00 0.00 0.01 0.00 0.00 0.00 0.00 0.00 0.00 0.00 0.00 0.00 0.00 0.00 0.00 0.00 0.00 0.00 0.00 0.00 0.00
0.17 0.27 0.26 0.33 0.54 0.78 0.66 1.24 0.74 0.71 0.31 0.21 0.43 0.17 0.07 0.12 0.16 0.23 0.13 0.09 0.00 0.01 0.03 0.02 0.03 0.04 0.00 0.00 0.00 0.00 0.00 0.00 0.00 0.00 0.01 0.02 0.02 0.00 0.00 0.01 0.06 0.05 0.02 0.00 0.00 0.00 0.01 0.00 0.00 0.00 0.00 0.00 0.00 0.00 0.00 0.00 0.00 0.00 0.00 0.00 0.00 0.00 0.00 0.00 0.00 0.00 0.00 0.00 0.00 0.00 0.00 0.00 0.00 0.00 0.00 0.00 0.00 0.00 0.00 0.00 0.00 0.00 0.00 0.00 0.00
0.11 0.43 0.54 0.45 0.95 2.14 2.51 1.66 1.77 0.86 0.51 0.35 0.44 0.29 0.22 0.27 0.31 0.17 0.03 0.04 0.06 0.06 0.02 0.02 0.01 0.02 0.00 0.00 0.00 0.00 0.00 0.00 0.01 0.00 0.01 0.02 0.01 0.00 0.00 0.01 0.00 0.02 0.00 0.00 0.00 0.00 0.00 0.00 0.00 0.00 0.00 0.00 0.00 0.00 0.00 0.00 0.00 0.00 0.00 0.00 0.00 0.00 0.00 0.00 0.00 0.00 0.00 0.00 0.00 0.00 0.00 0.00 0.00 0.00 0.00 0.00 0.00 0.00 0.00 0.00 0.00 0.00 0.00 0.00 0.00
0.25 0.92 0.36 0.87 1.22 1.74 1.40 0.95 0.72 0.87 0.65 0.52 0.50 0.34 0.25 0.24 0.25 0.14 0.06 0.03 0.01 0.01 0.01 0.00 0.01 0.00 0.00 0.00 0.00 0.00 0.01 0.01 0.00 0.01 0.01 0.02 0.01 0.00 0.00 0.00 0.01 0.00 0.00 0.00 0.00 0.00 0.00 0.00 0.00 0.00 0.00 0.00 0.00 0.00 0.00 0.00 0.00 0.00 0.00 0.00 0.00 0.00 0.00 0.00 0.00 0.00 0.00 0.00 0.00 0.00 0.00 0.00 0.00 0.00 0.00 0.00 0.00 0.00 0.00 0.00 0.00 0.00 0.00 0.00 0.00
0.24 0.61 1.37 1.20 1.44 2.09 1.77 0.92 0.98 1.07 1.11 1.14 0.64 0.60 0.26 0.19 0.11 0.08 0.07 0.08 0.07 0.08 0.09 0.08 0.04 0.01 0.06 0.03 0.05 0.05 0.04 0.05 0.04 0.02 0.01 0.01 0.00 0.03 0.00 0.00 0.00 0.00 0.00 0.00 0.00 0.00 0.00 0.00 0.00 0.00 0.00 0.00 0.00 0.00 0.00 0.00 0.00 0.00 0.00 0.00 0.00 0.00 0.00 0.00 0.00 0.00 0.00 0.00 0.00 0.00 0.00 0.00 0.00 0.00 0.00 0.00 0.00 0.00 0.00 0.00 0.00 0.00 0.00 0.00 0.00
0.47 0.83 1.10 0.99 0.91 0.96 1.53 0.88 0.89 2.16 1.30 1.60 1.12 0.51 0.47 0.15 0.15 0.16 0.09 0.10 0.09 0.10 0.08 0.10 0.05 0.15 0.16 0.12 0.18 0.03 0.14 0.10 0.13 0.09 0.12 0.06 0.00 0.00 0.01 0.00 0.00 0.00 0.00 0.00 0.00 0.00 0.00 0.00 0.00 0.00 0.00 0.00 0.00 0.00 0.00 0.00 0.00 0.00 0.00 0.00 0.00 0.00 0.00 0.00 0.00 0.01 0.00 0.00 0.00 0.00 0.00 0.00 0.00 0.00 0.00 0.00 0.00 0.00 0.00 0.00 0.00 0.00 0.00 0.02 0.01
0.20 0.32 0.32 0.62 0.91 0.77 0.83 1.41 1.40 1.41 1.73 1.90 1.34 0.43 0.85 0.50 0.42 0.29 0.38 0.22 0.17 0.11 0.06 0.04 0.10 0.18 0.11 0.08 0.12 0.17 0.14 0.12 0.22 0.16 0.31 0.21 0.07 0.02 0.01 0.00 0.00 0.00 0.00 0.00 0.00 0.00 0.00 0.00 0.00 0.00 0.00 0.00 0.00 0.00 0.00 0.00 0.00 0.00 0.00 0.00 0.00 0.01 0.00 0.00 0.00 0.00 0.00 0.01 0.00 0.00 0.00 0.00 0.00 0.00 0.00 0.00 0.00 0.00 0.00 0.00 0.00 0.00 0.00 0.00 0.01
0.19 0.34 0.95 1.40 0.79 1.40 1.12 1.77 1.03 0.75 1.20 1.04 0.82 0.52 0.26 0.39 0.46 0.42 0.41 0.19 0.17 0.05 0.03 0.02 0.04 0.09 0.04 0.12 0.16 0.27 0.31 0.30 0.34 0.25 0.24 0.18 0.31 0.16 0.06 0.03 0.01 0.00 0.00 0.00 0.00 0.00 0.00 0.00 0.00 0.00 0.00 0.00 0.00 0.00 0.00 0.00 0.02 0.00 0.00 0.00 0.01 0.01 0.01 0.02 0.00 0.00 0.00 0.00 0.00 0.00 0.00 0.00 0.00 0.00 0.00 0.00 0.00 0.00 0.00 0.00 0.01 0.01 0.01 0.01 0.01
0.44 0.85 1.12 0.45 0.56 1.48 1.51 1.15 0.60 2.12 0.53 0.93 1.29 0.63 0.36 0.41 0.36 0.34 0.34 0.24 0.09 0.05 0.02 0.03 0.06 0.13 0.04 0.23 0.14 0.17 0.29 0.53 0.28 0.23 0.21 0.35 0.14 0.08 0.01 0.05 0.12 0.03 0.00 0.01 0.00 0.00 0.00 0.03 0.03 0.00 0.00 0.00 0.00 0.00 0.00 0.00 0.01 0.01 0.00 0.00 0.00 0.00 0.00 0.00 0.00 0.00 0.00 0.00 0.00 0.00 0.00 0.00 0.00 0.00 0.00 0.00 0.00 0.01 0.01 0.02 0.02 0.01 0.01 0.01 0.00
0.50 1.17 0.73 0.35 0.39 1.49 1.52 1.55 1.50 1.00 1.23 1.24 0.80 0.84 0.58 0.78 0.89 0.69 0.26 0.28 0.07 0.03 0.02 0.03 0.14 0.28 0.21 0.34 0.13 0.38 0.29 0.30 0.19 0.12 0.19 0.13 0.07 0.10 0.09 0.05 0.09 0.10 0.09 0.17 0.07 0.12 0.03 0.04 0.02 0.01 0.01 0.01 0.00 0.00 0.00 0.00 0.01 0.00 0.01 0.01 0.01 0.00 0.00 0.00 0.00 0.01 0.00 0.00 0.00 0.00 0.00 0.00 0.00 0.00 0.00 0.00 0.01 0.01 0.01 0.00 0.01 0.01 0.00 0.00 0.00
0.97 1.63 0.59 0.52 0.48 1.10 1.16 0.84 0.78 1.10 0.99 0.86 0.77 0.24 0.38 0.45 0.73 0.89 0.31 0.18 0.09 0.05 0.04 0.03 0.24 0.48 0.21 0.42 0.48 0.11 0.18 0.93 0.17 0.12 0.29 0.39 0.53 0.56 0.10 0.41 0.14 0.17 0.10 0.36 0.16 0.07 0.11 0.05 0.02 0.05 0.01 0.03 0.01 0.00 0.00 0.02 0.01 0.01 0.01 0.01 0.01 0.01 0.01 0.00 0.01 0.01 0.01 0.00 0.00 0.00 0.00 0.00 0.00 0.00 0.00 0.00 0.01 0.01 0.02 0.01 0.01 0.00 0.00 0.00 0.00
1.48 0.38 0.33 0.64 1.17 0.76 0.63 1.02 1.01 1.25 0.86 0.61 0.76 0.58 1.07 1.00 0.47 0.49 0.11 0.14 0.16 0.10 0.02 0.04 0.10 0.22 0.20 0.28 0.43 0.34 0.16 0.46 0.26 0.19 0.16 0.14 0.47 0.40 0.18 0.31 0.19 0.46 0.08 0.37 0.08 0.08 0.11 0.09 0.05 0.03 0.01 0.01 0.01 0.00 0.00 0.01 0.03 0.01 0.02 0.03 0.01 0.01 0.01 0.00 0.02 0.01 0.01 0.00 0.00 0.00 0.00 0.00 0.00 0.00 0.00 0.00 0.01 0.01 0.00 0.00 0.00 0.00 0.00 0.00 0.00
0.50 0.33 0.82 1.52 0.89 0.62 0.64 0.65 0.62 0.67 0.34 1.09 0.73 1.02 0.83 0.51 0.28 0.50 0.48 0.20 0.25 0.07 0.06 0.16 0.16 0.24 0.14 0.24 0.21 0.09 0.12 0.38 0.11 0.07 0.15 0.21 0.44 0.15 0.45 0.26 0.33 0.26 0.12 0.23 0.06 0.05 0.02 0.03 0.02 0.06 0.01 0.02 0.01 0.00 0.00 0.00 0.02 0.02 0.03 0.02 0.06 0.01 0.01 0.01 0.02 0.00 0.02 0.01 0.00 0.00 0.00 0.00 0.00 0.00 0.00 0.00 0.00 0.00 0.00 0.00 0.00 0.00 0.00 0.01 0.00
0.49 0.90 1.67 1.15 0.73 0.95 0.52 0.36 0.28 0.37 0.69 0.95 0.54 1.05 1.17 1.16 0.85 0.74 0.73 0.43 0.86 0.59 0.52 0.43 0.41 0.28 0.19 0.28 0.12 0.11 0.05 0.05 0.10 0.12 0.13 0.17 0.46 0.19 0.26 0.40 0.32 0.38 0.20 0.16 0.04 0.03 0.02 0.04 0.01 0.02 0.01 0.02 0.02 0.00 0.00 0.01 0.05 0.02 0.05 0.01 0.01 0.01 0.09 0.18 0.05 0.01 0.01 0.02 0.00 0.00 0.00 0.00 0.00 0.00 0.00 0.00 0.00 0.00 0.00 0.00 0.00 0.00 0.01 0.00 0.00
1.48 0.93 0.61 0.71 0.48 0.42 0.43 0.37 0.45 0.65 0.74 1.26 0.52 0.99 1.15 1.14 0.99 0.86 1.45 0.85 1.13 0.90 0.87 0.53 0.36 0.28 0.25 0.09 0.03 0.15 0.21 0.16 0.13 0.21 0.11 0.36 0.15 0.07 0.08 0.25 0.27 0.13 0.17 0.24 0.33 0.07 0.09 0.01 0.01 0.02 0.05 0.04 0.02 0.01 0.01 0.00 0.06 0.08 0.07 0.01 0.04 0.13 0.06 0.07 0.04 0.05 0.01 0.02 0.00 0.00 0.00 0.00 0.00 0.00 0.00 0.00 0.00 0.00 0.00 0.00 0.00 0.00 0.00 0.00 0.00
1.57 1.31 0.51 0.65 0.45 0.57 0.47 0.75 0.92 1.23 1.40 0.86 1.46 1.11 1.03 1.06 1.17 1.09 0.90 0.87 0.68 0.60 0.67 0.62 0.40 0.28 0.20 0.18 0.12 0.13 0.07 0.09 0.19 0.07 0.11 0.13 0.11 0.22 0.15 0.30 0.20 0.23 0.30 0.38 0.32 0.47 0.22 0.03 0.01 0.07 0.08 0.03 0.02 0.03 0.10 0.38 0.18 0.02 0.13 0.04 0.07 0.31 0.25 0.18 0.07 0.34 0.07 0.05 0.04 0.01 0.01 0.00 0.00 0.00 0.00 0.00 0.00 0.00 0.00 0.00 0.00 0.00 0.00 0.00 0.00
1.70 1.37 1.43 0.69 0.46 0.61 0.76 0.61 1.08 1.26 1.29 1.31 1.33 1.30 0.70 0.39 0.78 0.81 0.70 0.50 0.54 0.56 0.48 0.24 0.26 0.41 0.17 0.36 0.35 0.19 0.09 0.04 0.10 0.19 0.40 0.09 0.09 0.08 0.13 0.35 0.75 0.41 0.19 0.17 0.28 0.35 0.23 0.30 0.06 0.10 0.10 0.04 0.26 0.06 0.09 0.25 0.17 0.09 0.02 0.09 0.17 0.17 0.41 0.14 0.59 0.33 0.30 0.08 0.01 0.03 0.00 0.01 0.00 0.00 0.00 0.00 0.00 0.00 0.00 0.00 0.00 0.00 0.00 0.00 0.00
1.17 1.09 1.13 0.76 0.58 0.71 0.97 0.55 0.98 1.49 2.08 1.97 0.97 1.26 1.42 0.80 0.51 0.55 0.49 0.46 0.43 0.13 0.33 0.21 0.13 0.17 0.24 0.35 0.21 0.14 0.19 0.12 0.14 0.15 0.14 0.16 0.18 0.08 0.10 0.38 0.59 0.31 0.29 0.37 0.41 0.27 0.39 0.52 0.43 0.49 0.40 0.20 0.16 0.41 0.39 0.40 0.14 0.02 0.06 0.03 0.07 0.07 0.17 0.10 0.35 0.16 0.07 0.43 0.15 0.02 0.08 0.06 0.02 0.00 0.00 0.00 0.00 0.00 0.00 0.00 0.01 0.01 0.00 0.00 0.00
1.04 0.89 0.86 0.66 0.81 1.05 0.81 1.00 1.39 1.09 0.97 1.03 0.94 1.24 0.85 0.74 0.63 0.57 0.24 0.23 0.21 0.08 0.41 0.38 0.13 0.09 0.10 0.26 0.17 0.30 0.09 0.31 0.37 0.27 0.14 0.22 0.42 0.12 0.13 0.17 0.38 0.26 0.23 0.30 0.30 0.50 0.59 0.36 0.34 0.26 0.49 0.37 0.40 0.30 0.17 0.23 0.07 0.03 0.04 0.21 0.09 0.19 0.18 0.13 0.13 0.20 0.11 0.13 0.47 0.31 0.07 0.03 0.05 0.04 0.03 0.00 0.00 0.00 0.00 0.00 0.02 0.02 0.02 0.01 0.00
0.28 0.42 0.57 0.46 0.57 0.46 0.51 0.49 0.50 0.55 0.57 0.80 0.57 0.79 0.59 0.46 0.63 0.22 0.26 0.13 0.17 0.21 0.27 0.09 0.05 0.06 0.10 0.06 0.09 0.19 0.17 0.08 0.27 0.26 0.19 0.09 0.09 0.05 0.05 0.34 0.23 0.43 0.72 0.37 0.51 0.73 0.46 0.24 0.20 0.36 0.39 0.43 0.31 0.64 0.58 0.54 0.46 0.53 0.15 0.66 0.10 0.04 0.14 0.20 0.22 0.27 0.18 0.11 0.11 0.23 0.36 0.58 0.32 0.16 0.12 0.04 0.00 0.00 0.00 0.00 0.00 0.00 0.01 0.02 0.01
0.12 0.21 0.31 0.32 0.21 0.13 0.14 0.19 0.22 0.10 0.47 0.38 0.43 0.39 0.70 0.67 0.44 0.10 0.07 0.20 0.20 0.10 0.13 0.12 0.09 0.04 0.06 0.02 0.15 0.11 0.16 0.09 0.04 0.05 0.18 0.08 0.07 0.14 0.14 0.37 0.28 0.31 0.35 0.22 0.56 0.81 0.52 0.54 0.57 0.71 0.62 0.63 0.39 0.40 0.45 0.48 0.34 0.45 0.17 0.08 0.07 0.02 0.12 0.22 0.34 0.37 0.31 0.35 0.26 0.29 0.44 0.53 0.40 0.44 0.20 0.25 0.19 0.03 0.00 0.00 0.00 0.00 0.00 0.01 0.03
0.09 0.15 0.42 0.36 0.17 0.15 0.04 0.04 0.08 0.20 0.37 0.22 0.17 0.37 1.08 0.55 0.43 0.29 0.11 0.28 0.50 0.25 0.22 0.09 0.12 0.07 0.04 0.04 0.06 0.08 0.02 0.04 0.10 0.10 0.08 0.13 0.27 0.27 0.32 0.44 0.27 0.21 0.39 0.43 0.30 0.12 0.20 0.57 0.36 0.57 0.85 0.67 0.48 0.47 0.39 0.35 0.37 0.29 0.20 0.05 0.11 0.13 0.22 0.37 0.26 0.28 0.39 0.24 0.39 0.27 0.43 0.65 0.55 0.29 0.15 0.16 0.26 0.21 0.15 0.01 0.00 0.00 0.00 0.00 0.01
0.05 0.28 0.20 0.07 0.04 0.04 0.05 0.06 0.07 0.22 0.24 0.17 0.37 0.21 0.48 0.49 0.16 0.12 0.17 0.05 0.14 0.02 0.07 0.11 0.11 0.09 0.02 0.04 0.03 0.05 0.05 0.05 0.09 0.09 0.22 0.04 0.13 0.55 0.37 0.15 0.28 0.41 0.30 0.55 0.55 0.46 0.47 0.59 0.32 0.31 0.33 0.57 0.30 0.27 0.46 0.19 0.12 0.10 0.18 0.14 0.33 0.29 0.44 0.34 0.13 0.20 0.48 0.55 0.42 0.37 0.33 0.46 0.48 0.45 0.15 0.18 0.26 0.28 0.38 0.91 0.15 0.03 0.00 0.00 0.00
0.07 0.16 0.04 0.07 0.02 0.02 0.03 0.05 0.04 0.15 0.12 0.13 0.17 0.14 0.20 0.15 0.05 0.02 0.01 0.01 0.01 0.02 0.01 0.01 0.02 0.03 0.06 0.02 0.03 0.05 0.11 0.12 0.09 0.03 0.18 0.18 0.13 0.12 0.16 0.27 0.26 0.42 0.45 0.50 0.32 0.31 0.59 0.65 0.44 0.85 0.67 0.56 0.18 0.24 0.26 0.15 0.08 0.05 0.09 0.03 0.10 0.09 0.05 0.21 0.36 0.26 0.44 0.31 0.25 0.13 0.35 0.27 0.16 0.17 0.18 0.17 0.39 0.57 0.79 0.44 0.37 0.34 0.11 0.01 0.00
0.10 0.09 0.10 0.11 0.04 0.08 0.02 0.03 0.07 0.08 0.11 0.22 0.17 0.14 0.09 0.03 0.01 0.03 0.02 0.03 0.01 0.00 0.00 0.01 0.01 0.01 0.06 0.02 0.04 0.04 0.09 0.11 0.04 0.04 0.04 0.12 0.19 0.32 0.32 0.26 0.14 0.23 0.51 0.55 0.30 0.30 0.25 0.26 0.17 0.55 0.37 0.18 0.17 0.41 0.20 0.18 0.09 0.05 0.04 0.06 0.16 0.07 0.08 0.03 0.07 0.13 0.54 0.15 0.20 0.65 0.34 0.52 0.36 0.37 0.17 0.48 0.48 0.49 0.63 1.02 0.58 0.66 0.22 0.06 0.01
0.10 0.10 0.12 0.10 0.25 0.38 0.37 0.11 0.14 0.08 0.07 0.23 0.18 0.15 0.06 0.02 0.01 0.01 0.01 0.00 0.00 0.00 0.00 0.00 0.00 0.01 0.03 0.07 0.03 0.02 0.02 0.03 0.08 0.06 0.03 0.06 0.12 0.16 0.36 0.20 0.32 0.30 0.40 0.50 0.61 0.24 0.13 0.18 0.25 0.11 0.14 0.11 0.19 0.08 0.07 0.07 0.05 0.08 0.06 0.06 0.11 0.11 0.06 0.05 0.12 0.09 0.04 0.02 0.01 0.01 0.01 0.02 0.02 0.10 0.11 0.20 0.24 0.42 0.71 0.48 0.43 0.57 0.28 0.21 0.12
0.16 0.08 0.06 0.46 0.28 0.12 0.48 0.58 0.24 0.10 0.17 0.29 0.56 0.23 0.19 0.01 0.02 0.02 0.01 0.00 0.00 0.00 0.00 0.00 0.00 0.02 0.04 0.03 0.02 0.02 0.04 0.04 0.07 0.06 0.11 0.06 0.10 0.11 0.09 0.35 0.43 0.46 0.41 0.43 0.39 0.15 0.26 0.28 0.19 0.23 0.27 0.22 0.15 0.26 0.25 0.23 0.13 0.20 0.16 0.31 0.13 0.16 0.23 0.10 0.02 0.01 0.02 0.01 0.02 0.00 0.00 0.01 0.01 0.01 0.00 0.00 0.04 0.02 0.22 0.63 0.56 0.63 0.44 0.38 0.50
0.14 0.17 0.21 0.15 0.18 0.24 0.35 0.20 0.39 0.28 0.51 0.29 0.24 0.33 0.29 0.07 0.05 0.00 0.00 0.00 0.00 0.00 0.00 0.00 0.00 0.01 0.04 0.04 0.03 0.05 0.06 0.04 0.04 0.06 0.10 0.16 0.28 0.26 0.19 0.46 0.28 0.27 0.33 0.32 0.33 0.11 0.30 0.11 0.05 0.11 0.18 0.28 0.26 0.23 0.44 0.27 0.32 0.44 0.44 0.30 0.28 0.33 0.25 0.10 0.02 0.00 0.01 0.00 0.00 0.00 0.01 0.00 0.00 0.02 0.03 0.03 0.06 0.26 0.24 0.15 0.28 0.40 1.07 1.04 0.64
0.10 0.11 0.29 0.13 0.16 0.16 0.13 0.06 0.31 0.67 0.25 0.17 0.05 0.19 0.18 0.11 0.01 0.00 0.00 0.00 0.00 0.00 0.00 0.00 0.00 0.00 0.00 0.01 0.11 0.05 0.05 0.12 0.07 0.23 0.09 0.09 0.17 0.09 0.07 0.03 0.14 0.06 0.23 0.44 0.40 0.29 0.27 0.14 0.04 0.10 0.05 0.15 0.18 0.20 0.23 0.40 0.51 0.56 0.57 0.51 0.63 0.36 0.32 0.27 0.02 0.00 0.00 0.00 0.00 0.00 0.00 0.00 0.00 0.00 0.00 0.02 0.02 0.06 0.07 0.09 0.50 0.45 0.76 0.58 0.73
0.55 0.47 0.05 0.01 0.27 0.30 0.24 0.12 0.14 0.24 0.38 0.08 0.11 0.11 0.05 0.01 0.00 0.00 0.00 0.00 0.00 0.00 0.00 0.00 0.00 0.00 0.00 0.00 0.01 0.04 0.08 0.04 0.07 0.13 0.11 0.14 0.11 0.05 0.04 0.04 0.16 0.11 0.22 0.29 0.30 0.33 0.27 0.25 0.16 0.10 0.16 0.20 0.13 0.20 0.15 0.35 0.65 0.31 0.33 0.46 0.39 0.15 0.32 0.31 0.02 0.01 0.00 0.00 0.00 0.00 0.00 0.00 0.00 0.00 0.00 0.01 0.02 0.01 0.02 0.02 0.04 0.17 0.28 0.21 0.40
0.55 0.19 0.07 0.08 0.23 0.19 0.09 0.15 0.08 0.06 0.07 0.08 0.04 0.01 0.01 0.00 0.00 0.00 0.00 0.00 0.00 0.00 0.00 0.00 0.00 0.00 0.00 0.00 0.00 0.00 0.00 0.01 0.03 0.03 0.06 0.03 0.03 0.03 0.03 0.13 0.05 0.19 0.14 0.12 0.18 0.16 0.22 0.15 0.11 0.18 0.12 0.07 0.11 0.07 0.10 0.56 0.35 0.73 0.93 0.60 0.50 0.97 0.33 0.18 0.10 0.04 0.00 0.00 0.00 0.00 0.00 0.00 0.00 0.00 0.00 0.00 0.00 0.00 0.00 0.01 0.00 0.01 0.02 0.03 0.10
0.65 0.44 0.49 0.63 0.51 0.52 0.13 0.36 0.01 0.17 0.11 0.10 0.01 0.00 0.01 0.00 0.00 0.00 0.00 0.00 0.00 0.00 0.00 0.00 0.00 0.00 0.00 0.00 0.00 0.00 0.00 0.00 0.00 0.00 0.01 0.00 0.00 0.01 0.01 0.01 0.02 0.05 0.03 0.11 0.03 0.03 0.07 0.05 0.04 0.06 0.03 0.06 0.03 0.06 0.08 0.12 0.07 0.44 0.69 0.78 0.30 0.06 0.18 0.03 0.34 0.07 0.01 0.00 0.00 0.00 0.00 0.00 0.00 0.00 0.00 0.00 0.00 0.00 0.00 0.00 0.00 0.01 0.02 0.01 0.02
0.68 1.01 0.97 0.77 1.07 0.91 0.33 0.27 0.07 0.07 0.11 0.12 0.00 0.00 0.00 0.00 0.00 0.00 0.00 0.00 0.00 0.00 0.00 0.00 0.00 0.00 0.00 0.00 0.00 0.00 0.00 0.00 0.00 0.00 0.00 0.00 0.00 0.01 0.00 0.00 0.00 0.00 0.00 0.01 0.02 0.02 0.02 0.02 0.03 0.05 0.04 0.07 0.07 0.06 0.03 0.09 0.06 0.10 0.37 0.15 0.06 0.06 0.10 0.11 0.15 0.09 0.11 0.00 0.00 0.00 0.00 0.00 0.00 0.00 0.00 0.00 0.00 0.00 0.00 0.00 0.00 0.00 0.00 0.00 0.00
0.53 0.95 1.43 1.10 1.58 0.80 0.38 0.04 0.13 0.18 0.17 0.02 0.00 0.00 0.01 0.00 0.00 0.00 0.00 0.00 0.00 0.00 0.00 0.00 0.00 0.00 0.00 0.00 0.00 0.00 0.00 0.00 0.00 0.00 0.00 0.00 0.00 0.00 0.01 0.01 0.01 0.00 0.00 0.01 0.01 0.02 0.02 0.02 0.04 0.05 0.03 0.03 0.03 0.03 0.03 0.03 0.03 0.17 0.05 0.03 0.06 0.03 0.08 0.09 0.13 0.09 0.12 0.00 0.00 0.00 0.00 0.00 0.00 0.00 0.00 0.00 0.00 0.00 0.00 0.00 0.00 0.00 0.00 0.00 0.00
0.63 0.61 1.34 1.79 0.94 0.68 0.59 0.06 0.01 0.14 0.03 0.02 0.00 0.00 0.00 0.00 0.00 0.00 0.00 0.00 0.00 0.00 0.00 0.00 0.00 0.00 0.00 0.00 0.00 0.00 0.00 0.00 0.00 0.00 0.00 0.00 0.00 0.00 0.01 0.01 0.01 0.01 0.01 0.01 0.01 0.02 0.02 0.05 0.06 0.09 0.02 0.03 0.03 0.02 0.02 0.03 0.02 0.02 0.08 0.02 0.02 0.02 0.02 0.15 0.05 0.27 0.01 0.00 0.00 0.00 0.00 0.00 0.00 0.00 0.00 0.00 0.00 0.00 0.00 0.00 0.00 0.00 0.00 0.00 0.00
0.88 1.23 0.75 0.53 0.57 0.66 0.36 0.13 0.05 0.03 0.01 0.01 0.00 0.00 0.01 0.00 0.00 0.00 0.00 0.00 0.00 0.00 0.00 0.00 0.00 0.00 0.00 0.00 0.00 0.00 0.00 0.00 0.00 0.00 0.00 0.00 0.00 0.00 0.01 0.00 0.00 0.00 0.01 0.01 0.01 0.02 0.03 0.06 0.13 0.11 0.03 0.03 0.02 0.02 0.02 0.05 0.02 0.02 0.03 0.04 0.04 0.05 0.03 0.10 0.08 0.01 0.00 0.00 0.00 0.00 0.00 0.00 0.00 0.00 0.00 0.00 0.00 0.00 0.00 0.00 0.00 0.00 0.00 0.00 0.00